SL-16 DEB, 39301

Orbit data source: Space-Track

SL-16 DEB, 39301 is space debris in LEO originally from a launch on Fri, 25 Dec 1992 UTC launched from the Tyuratam Missile And Space Complex (TTMTR). Debris objects in space refer to the collection of defunct objects orbiting the Earth. Examples of debris include non-operational satellites, rocket bodies, and fragments generated from explosions, collisions, or faulty payload assembly.

Loading next visibility...
Identifier
39301, 1992-093JS
Orbit
LEO
Country
Flag of CISCIS
Related business
Manufacturer
Unknown
Mission
Spacecraft
Bus & Motor
Unknown
Mass
Unknown
Launch date (UTC)
1992-12-25 (33 years ago)
Launch vehicle
Unknown
Launch site
Tyuratam Missile And Space Complex (TTMTR)
Object type
Payload
Rocket body
Debris
Shape & HBR
Unknown shape, 0.1 m
Radar Cross Section
Small (<0.1 m²)

Expand to show TLE details & history
Last TLE update: 2 days ago

TLE from 2 days ago
0 SL-16 DEB
1 39301U 92093JS  25304.25261338  .00000533  00000-0  31783-3 0  9999
2 39301  70.8779 304.9742 0036611 271.2831  88.4094 14.11578108629226
Epoch: 2025-10-31T06:03Z
TLE epoch observation values (Epoch: 2025-10-31T06:03:45.796Z)
Latitude
-0.00008°
Longitude
174.23365°
Altitude
855.727 km
Speed
7.425 km/s
True Right ascension
20h 19m 53s
True Declination
0° 00' 00"
Sunlit
Object was in daylight at epoch
Visualization orbit readout
Latitude
Unknown
Longitude
Unknown
Altitude
Unknown
Speed
Unknown
Apparent Right ascension
Unknown
Apparent Declination
Unknown
Sunlit
N/A
Visualization observer readout
Local Sidereal Time
13:59:44
Azimuth
Unknown
Elevation
Unknown
Doppler factor
Unknown
Orbital elements
Apogee altitude
878.387 km
Perigee altitude
825.447 km
Semi-major axis
7,230.054 km
Eccentricity
0.00366
Inclination
70.8779°
RAAN
304.9742°
Arg. of periapsis
271.2831°
True anomaly
88.82882°
Mean anomaly
88.4094°
Eccentric anomaly
88.6191°
Mean motion
3.53046 °/min
Orbital period
101.97 mins
BSTAR
0.00031783
Loading maneuver chart data...
Computing Atmospheric mass density...
Loading historical data...
Loading historical data...
Loading historical data...
Loading historical data...
Loading historical data...
Loading historical data...
Loading historical data...

Documentation

Showing up to 5 results
|